Tracking 19562 objects as of 24-Mar-2019
HD Live streaming from Space Station
objects crossing your sky now

COSMOS 2214

Track COSMOS 2214 now!
10-day predictions
COSMOS 2214 is classified as:


NORAD ID: 22185
Int'l Code: 1992-068D
Perigee: 1,417.4 km
Apogee: 1,430.2 km
Inclination: 82.6 °
Period: 114.1 minutes
Semi major axis: 7794 km
RCS: 1.1573 m2 (large)
Launch date: October 20, 1992
Source: Commonwealth of Independent States (former USSR) (CIS)
Launch site: PLESETSK MISSILE AND SPACE COMPLEX (PKMTR)
aabbcc
Your satellite tracking list
Your tracking list is empty




NASA's NSSDC Master Catalog

Two Line Element Set (TLE):
1 22185U 92068D   19081.94403601 -.00000004 +00000-0 -80641-4 0  9998
2 22185 082.5904 234.9636 0008249 019.8182 098.7020 12.61524867216358
Source of the keplerian elements: AFSPC